Location: Coupvray
(48.8929°N, 2.7967°E)
Time: 23:36:37
(UTC+00:00)

Cosmos 724 - Pass Details

Date: 25 October 2020
Orbit: 851 x 943 km, 65.6° (Epoch: 28 November)

Event Time Altitude Azimuth Distance (km) Brightness Sun altitude
Exits shadow 01:33:57 14° 26° (NNE) 2,287 6.9 -45.6°
Drops below altitude 10° 01:34:54 10° 30° (NNE) 2,600 7.3 -45.5°
Sets 01:37:38 0° 38° (NE) 3,559 8.2 -45.2°
